ARIRANG-5 (KOMPSAT-5)

Last updated on Mon Sep 07 2026 00:02:45 GMT+0000 (Coordinated Universal Time)

1 39227U 13042A 26249.57245382 .00000469 00000+0 37828-4 0 9992 2 39227 97.6229 75.1405 0002593 181.2089 178.9131 15.04546313716095
UTC large
Height (km)
Speed (km/s)
/
Latitude / Longitude
Inclination (degrees)
Orbital Period (minutes)
Azimuth
Elevation
Range (km)
Doppler Factor

Next 0 passes for location: London (51.5072 / 0.1276)

No passes found over London.
ARIRANG-5 (KOMPSAT-5)